Weather History for Newcastle, WY

Change the Weather History Date:

Tuesday, December 17, 2013

  Actual Average (KCUT) Record (KCUT)
Temperature  
Mean Temperature 30 °F 23 °F  
Max Temperature 42 °F 33 °F 62 °F (1962)
Min Temperature 17 °F 13 °F -37 °F (1964)
Degree Days  
Heating Degree Days 36 42  
Month to date heating degree days 703  
Since 1 July heating degree days 2884  
Cooling Degree Days 0 0  
Month to date cooling degree days 0  
Year to date cooling degree days 177  
Moisture  
Dew Point 20 °F    
Average Humidity 67    
Maximum Humidity 86    
Minimum Humidity 39    
Precipitation  
Precipitation 0.00 in 0.01 in 0.16 in (1993)
Month to date precipitation 0.20  
Year to date precipitation 18.77  
Sea Level Pressure  
Sea Level Pressure 30.10 in    
Wind  
Wind Speed 5 mph (NE)    
Max Wind Speed 13 mph    
Max Gust Speed -    
Visibility 10 miles    
Events      
T = Trace of Precipitation, MM = Missing Value Source: NWS Daily Summary

Daily Weather History Graph

Daily Weather History Graph

Search for Another Location

Airport:

Trip Planner

Search our weather history database for the weather conditions in past years. The results will help you decide how hot, cold, wet, or windy it might be!

Date:

Astronomy

Dec. 17, 2013 Rise Set
Actual Time 7:26 AM MST 4:20 PM MST
Civil Twilight 6:53 AM MST 4:53 PM MST
Nautical Twilight 6:16 AM MST 5:30 PM MST
Astronomical Twilight 5:41 AM MST 6:05 PM MST
Moon 5:04 PM MST (12/17) 7:22 AM MST (12/17)
Length of Visible Light 10h 00m
Length of Day
8h 54m
Full, 100% of the Moon is Illuminated
Dec 17
Full
Dec 25
Last Quarter
Jan 1
New
Jan 7
First Quarter
Jan 15
Full

Hourly Weather History & Observations

Time (MST) Temp. Windchill Dew Point Humidity Pressure Visibility Wind Dir Wind Speed Gust Speed Precip Events Conditions
12:15 AM 28.4 °F 24.6 °F 21.2 °F 74% 30.20 in 10.0 mi NW 3.5 mph - N/A   Clear
12:35 AM 30.2 °F 24.3 °F 21.2 °F 69% 30.21 in 10.0 mi NNW 5.8 mph - N/A   Clear
12:55 AM 28.4 °F 21.2 °F 21.2 °F 74% 30.21 in 10.0 mi NNW 6.9 mph - N/A   Clear
1:15 AM 26.6 °F 21.2 °F 21.2 °F 80% 30.21 in 10.0 mi NW 4.6 mph - N/A   Clear
1:35 AM 26.6 °F 20.0 °F 19.4 °F 74% 30.22 in 10.0 mi NNW 5.8 mph - N/A   Clear
1:55 AM 26.6 °F 19.1 °F 19.4 °F 74% 30.22 in 10.0 mi NNW 6.9 mph - N/A   Clear
2:15 AM 26.6 °F 18.2 °F 19.4 °F 74% 30.23 in 10.0 mi NNW 8.1 mph - N/A   Clear
2:35 AM 26.6 °F 18.2 °F 21.2 °F 80% 30.23 in 10.0 mi North 8.1 mph - N/A   Clear
2:55 AM 24.8 °F 17.9 °F 21.2 °F 86% 30.24 in 10.0 mi North 5.8 mph - N/A   Clear
3:15 AM 23.0 °F 17.0 °F 19.4 °F 86% 30.24 in 10.0 mi NNW 4.6 mph - N/A   Clear
3:35 AM 24.8 °F 16.1 °F 19.4 °F 80% 30.24 in 10.0 mi North 8.1 mph - N/A   Clear
3:55 AM 23.0 °F 15.8 °F 19.4 °F 86% 30.24 in 10.0 mi North 5.8 mph - N/A   Clear
4:15 AM 23.0 °F 15.8 °F 19.4 °F 86% 30.24 in 10.0 mi NNW 5.8 mph - N/A   Clear
4:35 AM 17.6 °F - 14.0 °F 86% 30.25 in 10.0 mi Calm Calm - N/A   Clear
4:55 AM 21.2 °F - 17.6 °F 86% 30.24 in 10.0 mi North - - N/A   Clear
5:15 AM 21.2 °F - 17.6 °F 86% 30.24 in 10.0 mi Calm Calm - N/A   Clear
5:35 AM 21.2 °F 14.9 °F 17.6 °F 86% 30.24 in 10.0 mi NNW 4.6 mph - N/A   Clear
5:55 AM 23.0 °F 13.9 °F 19.4 °F 86% 30.24 in 10.0 mi North 8.1 mph - N/A   Clear
6:15 AM 23.0 °F 13.9 °F 19.4 °F 86% 30.23 in 10.0 mi NNW 8.1 mph - N/A   Clear
6:35 AM 23.0 °F 15.8 °F 19.4 °F 86% 30.24 in 10.0 mi NW 5.8 mph - N/A   Clear
6:55 AM 23.0 °F 14.7 °F 19.4 °F 86% 30.23 in 10.0 mi NW 6.9 mph - N/A   Clear
7:15 AM 23.0 °F 18.4 °F 17.6 °F 80% 30.23 in 10.0 mi NNE 3.5 mph - N/A   Clear
7:35 AM 21.2 °F 12.6 °F 17.6 °F 86% 30.22 in 10.0 mi NNE 6.9 mph - N/A   Clear
7:55 AM 23.0 °F - 17.6 °F 80% 30.22 in 10.0 mi Calm Calm - N/A   Clear
8:15 AM 21.2 °F 14.9 °F 15.8 °F 80% 30.23 in 10.0 mi South 4.6 mph - N/A   Clear
8:35 AM 21.2 °F - 17.6 °F 86% 30.22 in 10.0 mi Calm Calm - N/A   Clear
8:55 AM 23.0 °F 18.4 °F 19.4 °F 86% 30.22 in 10.0 mi South 3.5 mph - N/A   Clear
9:15 AM 26.6 °F 17.5 °F 21.2 °F 80% 30.22 in 10.0 mi SSE 9.2 mph - N/A   Clear
9:35 AM 26.6 °F 19.1 °F 21.2 °F 80% 30.23 in 10.0 mi ESE 6.9 mph - N/A   Clear
9:55 AM 28.4 °F 20.4 °F 21.2 °F 74% 30.22 in 10.0 mi SE 8.1 mph - N/A   Clear
10:15 AM 32.0 °F 24.8 °F 21.2 °F 64% 30.21 in 10.0 mi SE 8.1 mph - N/A   Clear
10:35 AM 32.0 °F 23.6 °F 21.2 °F 64% 30.20 in 10.0 mi SE 10.4 mph - N/A   Clear
10:55 AM 33.8 °F 25.3 °F 23.0 °F 65% 30.18 in 10.0 mi SE 11.5 mph - N/A   Clear
11:15 AM 33.8 °F 24.8 °F 23.0 °F 65% 30.16 in 10.0 mi SE 12.7 mph - N/A   Clear
11:35 AM 37.4 °F 30.3 °F 21.2 °F 52% 30.14 in 10.0 mi SE 10.4 mph - N/A   Clear
11:55 AM 37.4 °F 31.4 °F 21.2 °F 52% 30.13 in 10.0 mi SE 8.1 mph - N/A   Clear
12:15 PM 39.2 °F 33.6 °F 21.2 °F 49% 30.11 in 10.0 mi SE 8.1 mph - N/A   Clear
12:35 PM 41.0 °F 36.4 °F 21.2 °F 45% 30.09 in 10.0 mi SSE 6.9 mph - N/A   Clear
12:55 PM 41.0 °F 36.4 °F 21.2 °F 45% 30.08 in 10.0 mi SSE 6.9 mph - N/A   Clear
1:15 PM 41.0 °F 39.0 °F 19.4 °F 42% 30.06 in 10.0 mi SE 3.5 mph - N/A   Clear
1:35 PM 42.8 °F - 19.4 °F 39% 30.04 in 10.0 mi Calm Calm - N/A   Clear
1:55 PM 42.8 °F 41.1 °F 19.4 °F 39% 30.04 in 10.0 mi South 3.5 mph - N/A   Clear
2:15 PM 42.8 °F 40.1 °F 21.2 °F 42% 30.03 in 10.0 mi SSE 4.6 mph - N/A   Clear
2:35 PM 42.8 °F 40.1 °F 21.2 °F 42% 30.02 in 10.0 mi SE 4.6 mph - N/A   Clear
2:55 PM 42.8 °F 41.1 °F 21.2 °F 42% 30.01 in 10.0 mi SSE 3.5 mph - N/A   Clear
3:15 PM 42.8 °F - 21.2 °F 42% 30.01 in 10.0 mi Calm Calm - N/A   Clear
3:35 PM 42.8 °F 40.1 °F 23.0 °F 46% 30.00 in 10.0 mi SSE 4.6 mph - N/A   Clear
3:55 PM 41.0 °F 38.0 °F 23.0 °F 49% 30.00 in 10.0 mi SE 4.6 mph - N/A   Clear
4:15 PM 35.6 °F 32.8 °F 21.2 °F 56% 29.99 in 10.0 mi SSE 3.5 mph - N/A   Clear
4:35 PM 35.6 °F 31.7 °F 23.0 °F 60% 29.98 in 10.0 mi East 4.6 mph - N/A   Clear
4:55 PM 33.8 °F - 23.0 °F 65% 29.97 in 10.0 mi Calm Calm - N/A   Clear
5:15 PM 32.0 °F - 23.0 °F 69% 29.97 in 10.0 mi Calm Calm - N/A   Clear
5:35 PM 32.0 °F - 23.0 °F 69% 29.97 in 10.0 mi Calm Calm - N/A   Clear
5:55 PM 33.8 °F 29.6 °F 21.2 °F 60% 29.95 in 10.0 mi East 4.6 mph - N/A   Clear
6:15 PM 33.8 °F - 21.2 °F 60% 29.95 in 10.0 mi North - - N/A   Clear
6:35 PM 35.6 °F 32.8 °F 21.2 °F 56% 29.95 in 10.0 mi NNE 3.5 mph - N/A   Clear
6:55 PM 32.0 °F 27.5 °F 21.2 °F 64% 29.94 in 10.0 mi NE 4.6 mph - N/A   Clear
7:15 PM 32.0 °F 26.4 °F 21.2 °F 64% 29.95 in 10.0 mi NE 5.8 mph - N/A   Clear
7:35 PM 32.0 °F 27.5 °F 21.2 °F 64% 29.95 in 10.0 mi NE 4.6 mph - N/A   Clear
7:55 PM 32.0 °F 26.4 °F 21.2 °F 64% 29.94 in 10.0 mi East 5.8 mph - N/A   Clear
8:15 PM 32.0 °F 26.4 °F 21.2 °F 64% 29.94 in 10.0 mi East 5.8 mph - N/A   Clear
8:35 PM 32.0 °F 27.5 °F 21.2 °F 64% 29.93 in 10.0 mi NE 4.6 mph - N/A   Clear
8:55 PM 32.0 °F 26.4 °F 21.2 °F 64% 29.93 in 10.0 mi ENE 5.8 mph - N/A   Clear
9:15 PM 33.8 °F - 21.2 °F 60% 29.93 in 10.0 mi North - - N/A   Clear
9:35 PM 33.8 °F - 21.2 °F 60% 29.93 in 10.0 mi North - - N/A   Clear
9:55 PM 33.8 °F 28.6 °F 21.2 °F 60% 29.92 in 10.0 mi NNE 5.8 mph - N/A   Clear
10:15 PM 33.8 °F 26.4 °F 21.2 °F 60% 29.91 in 10.0 mi North 9.2 mph - N/A   Clear
10:35 PM 33.8 °F 25.8 °F 21.2 °F 60% 29.91 in 10.0 mi North 10.4 mph - N/A   Clear
10:55 PM 33.8 °F 26.4 °F 21.2 °F 60% 29.91 in 10.0 mi North 9.2 mph - N/A   Clear
11:15 PM 33.8 °F 27.0 °F 21.2 °F 60% 29.91 in 10.0 mi North 8.1 mph - N/A   Clear
11:35 PM 33.8 °F 26.4 °F 21.2 °F 60% 29.90 in 10.0 mi North 9.2 mph - N/A   Clear
11:55 PM 33.8 °F 29.6 °F 21.2 °F 60% 29.89 in 10.0 mi North 4.6 mph - N/A   Clear